Location: Goettingen
(51.5300°N, 9.9433°E)
Time: 19:53:52
(UTC+02:00)

ISS - Pass Details

Date: 16 September 2021
Orbit: 419 x 423 km, 51.6° (Epoch: 20 September)

Event Time Altitude Azimuth Distance (km) Brightness Sun altitude
Rises 20:48:30 0° 201° (SSW) 2,354 0.1 -12.4°
Reaches altitude 10° 20:51:12 10° 177° (S) 1,495 -1.2 -12.8°
Enters shadow 20:52:23 14° 158° (SSE) 1,275 -1.7 -13.0°
